Home   Weather   Miramichi   Past weeks

Flag for Canada Past Weather in Miramichi, New Brunswick, Canada — Yesterday and Last 2 Weeks

Now
30 °F

Light snow. Ice fog.


Feels Like: 24 °F
Forecast: 28 / 35 °F
Wind: 6 mph from Northwest

Location: Bathurst Airport

Current Time: Dec 3, 2016 at 5:52:48 am

Latest Report: Dec 3, 2016 at 5:00 am


Visibility: 2 mi

Pressure: 29.64 "Hg

Humidity: 93%

Dew Point: 28 °F

Location of MiramichiLocation

Past Weather in Miramichi — Graph

°F

Miramichi Temperature Yesterday

Maximum temperature yesterday: 36 °F (at 2:00 am)
Minimum temperature yesterday: 32 °F (at 3:48 am)
Average temperature yesterday: 33 °F

High & Low Weather Summary for the Past Weeks

 TemperatureHumidityPressure
High52 °F (Nov 18, 1:00 pm)100% (Nov 18, 8:00 am)30.41 "Hg (Nov 18, 8:00 am)
Low18 °F (Nov 29, 8:00 am)60% (Nov 28, 12:00 pm)29.30 "Hg (Nov 20, 11:00 pm)
Average34 °F89%29.89 "Hg
* Reported Nov 18 4:00 am — Dec 3 4:00 am, Miramichi, Weather by CustomWeather, © 2016

Note: Actual official high and low records may vary slightly from our data, if they occured in-between our weather recording intervals... More about our weather records

Advertising

Miramichi Weather History for the Previous 24 Hours

Scroll right to see more
 ConditionsComfort  
Time TempWeatherWind HumidityBarometerVisibility
4:00 am
Sat, Dec 3
30 °FLight snow. Passing clouds.5 mph93%29.64 "Hg10 mi
3:00 am30 °FLight snow. Passing clouds.5 mph93%29.63 "Hg10 mi
2:00 am30 °FLight snow. Overcast.3 mph93%29.63 "Hg6 mi
1:00 am30 °FLight snow. Overcast.5 mph93%29.62 "Hg8 mi
12:00 am30 °FPassing clouds.3 mph93%29.63 "Hg12 mi
11:00 pm
Fri, Dec 2
32 °FPassing clouds.5 mph87%29.63 "Hg12 mi
10:00 pm32 °FOvercast.3 mph93%29.64 "Hg15 mi
9:00 pm32 °FPassing clouds.2 mph93%29.64 "Hg12 mi
8:00 pm32 °FPassing clouds.3 mph93%29.64 "Hg8 mi
7:00 pm34 °FPassing clouds.5 mph87%29.64 "Hg15 mi
6:00 pm32 °FPassing clouds.3 mph93%29.63 "Hg15 mi
5:00 pm32 °FPassing clouds.5 mph93%29.62 "Hg15 mi
4:00 pm34 °FBroken clouds.6 mph87%29.62 "Hg15 mi
3:00 pm36 °FBroken clouds.7 mph81%29.60 "Hg15 mi
2:00 pm36 °FBroken clouds.7 mph87%29.60 "Hg15 mi
1:00 pm36 °FPartly sunny.10 mph87%29.59 "Hg15 mi
12:00 pm34 °FLight snow. Partly sunny.8 mph93%29.59 "Hg14 mi
11:00 am34 °FLight snow. More clouds than sun.8 mph93%29.59 "Hg12 mi
10:00 am34 °FLight snow. Mostly cloudy.10 mph93%29.57 "Hg7 mi
9:00 am32 °FLight snow. Low clouds.8 mph100%29.56 "Hg1 mi
8:00 am32 °FLight snow. Dense fog.8 mph100%29.54 "Hg1 mi
7:00 am32 °FLight snow. Dense fog.7 mph100%29.50 "Hg1 mi
6:00 am32 °FLight snow. Dense fog.8 mph100%29.48 "Hg1 mi
5:00 am32 °FSnow. Dense fog.8 mph100%29.45 "Hg1 mi
Weather by CustomWeather, © 2016

See weather overviewHow to use our weather pages